Retour au catalogue

STARLINK-6299

ActifCommunicationsVLEO
NORAD 57358·PAYLOAD·🇺🇸 United States

Lancé Jul 16, 2023 depuis Cape Canaveral Space Force Station

Loading…

Prochains Passages (prochaines 24 heures)

TLE

FraisSource: CelesTrak SupGP

Époque: Sep 14, 2026, 13:56 UTC

1 57358C 23099AG  26257.58104167 -.00031655  00000+0 -11461-2 0  2578
2 57358  43.0019 254.5083 0001631 273.7368  52.1092 15.27607418    12

Suivez STARLINK-6299 en temps réel avec AllMySat

Download on the App Store